Stations météo

réclame
Mon MeteoGroup
Landsort, Suède (2582): Température de l'air & dewpoint: 05.12.2018 17:00:00 - 11.12.2018 17:00:00 (CET)Landsort, Suède (2582): Vitesse du vent & gusts: 05.12.2018 17:00:00 - 11.12.2018 17:00:00 (CET)Landsort, Suède (2582): Direction du vent: 05.12.2018 17:00:00 - 11.12.2018 17:00:00 (CET)Landsort, Suède (2582): reduced air pressure: 05.12.2018 17:00:00 - 11.12.2018 17:00:00 (CET)Landsort, Suède (2582): visibility: 05.12.2018 17:00:00 - 11.12.2018 17:00:00 (CET)Landsort, Suède (2582): Quantités de précipitations: 05.12.2018 17:00:00 - 11.12.2018 17:00:00 (CET)
Date & Time tt [°C] td [°C] ff [km/h] ff [knt] fx [km/h] fx [knt] dd ppp [hPa] vv [km] rr [mm]
11.12.2018 17:00:00 - - - - - - - - - -
11.12.2018 16:00:00 3,9 2,3 20 11 34 18 NNE 1019,4 35 0,0
11.12.2018 15:00:00 3,8 2,3 20 11 42 23 NNE 1018,4 32 0,0
11.12.2018 14:00:00 4,1 2,3 26 14 45 25 NNE 1017,5 35 0,0
11.12.2018 13:00:00 4,0 2,2 33 18 48 26 NNE 1016,6 34 0,0
11.12.2018 12:00:00 4,0 2,4 37 20 54 29 NNE 1015,5 36 0,0
11.12.2018 11:00:00 3,6 2,1 41 22 54 29 NE 1014,6 50 0,0
11.12.2018 10:00:00 3,7 2,4 41 22 53 29 NE 1013,5 49 0,0
11.12.2018 09:00:00 3,4 1,9 39 21 52 28 NNE 1012,5 43 0,0
11.12.2018 08:00:00 3,4 1,9 37 20 52 28 NNE 1011,4 50 0,0
11.12.2018 07:00:00 3,3 1,8 37 20 49 26 NNE 1010,1 50 0,0
11.12.2018 06:00:00 3,2 1,6 34 18 46 25 NNE 1009,2 49 0,0
11.12.2018 05:00:00 3,3 2,0 31 17 44 24 NNE 1008,1 50 0,0
11.12.2018 04:00:00 3,3 2,1 27 15 44 24 NNE 1007,0 50 0,0
11.12.2018 03:00:00 3,3 2,3 29 16 40 22 NNE 1006,0 50 0,0
11.12.2018 02:00:00 3,0 2,3 26 14 40 22 N 1005,1 47 0,1
11.12.2018 01:00:00 2,5 1,9 23 12 35 19 N 1004,1 12 0,1
11.12.2018 00:00:00 1,5 1,1 19 10 28 15 N 1003,1 21 0,1
10.12.2018 23:00:00 0,8 0,2 20 11 28 15 NNW 1002,6 4,6 0,2
10.12.2018 22:00:00 0,4 -0,6 11 6 22 12 N 1001,9 17 0,1
10.12.2018 21:00:00 0,1 -1,2 14 8 22 12 N 1000,9 49 0,0
10.12.2018 20:00:00 -0,3 -1,6 13 7 26 14 N 999,9 50 0,0
10.12.2018 19:00:00 -0,6 -2,0 10 6 27 15 N 999,0 50 0,0
10.12.2018 18:00:00 -0,1 -1,5 19 10 25 14 NNE 998,2 50 0,0
10.12.2018 17:00:00 -0,3 -1,6 14 8 20 11 NNE 997,2 50 0,0
10.12.2018 16:00:00 -0,3 -2,2 10 5 16 9 N 996,3 50 0,0
10.12.2018 15:00:00 0,2 -1,9 7 4 18 10 N 995,2 50 0,0
10.12.2018 14:00:00 0,4 -1,8 11 6 20 11 NNW 994,4 50 0,0
10.12.2018 13:00:00 0,3 -1,6 10 6 23 12 NW 993,7 50 0,0
10.12.2018 12:00:00 0,4 -1,7 11 6 23 12 WNW 993,0 50 0,0
10.12.2018 11:00:00 0,2 -1,6 16 9 27 14 WNW 992,4 50 0,0
10.12.2018 10:00:00 0,0 -1,7 16 9 29 16 NW 992,0 50 0,0
10.12.2018 09:00:00 0,0 -1,7 18 10 29 16 WNW 991,4 50 0,0
10.12.2018 08:00:00 0,1 -1,3 19 11 29 16 WNW 990,8 50 0,0
10.12.2018 07:00:00 0,1 -1,5 16 9 32 17 WNW 990,1 50 0,0
10.12.2018 06:00:00 0,3 -1,3 21 11 32 18 WNW 989,7 50 0,0
10.12.2018 05:00:00 0,6 -1,2 19 10 36 19 WNW 989,2 50 0,0
10.12.2018 04:00:00 0,9 -0,7 21 12 36 20 WNW 988,8 50 0,0
10.12.2018 03:00:00 1,5 -0,1 29 16 36 20 W 988,4 50 0,0
10.12.2018 02:00:00 2,0 0,4 21 11 40 22 WNW 988,1 50 0,0
10.12.2018 01:00:00 2,1 0,2 26 14 40 22 WNW 987,7 50 -
10.12.2018 00:00:00 2,4 0,8 29 16 38 20 WNW 987,4 25 0,0
09.12.2018 23:00:00 3,1 1,8 27 15 37 20 WNW 986,8 20 0,0
09.12.2018 22:00:00 4,2 3,5 25 13 31 17 W 986,4 17 0,0
09.12.2018 21:00:00 4,9 3,4 22 12 27 15 W 985,9 50 0,0
09.12.2018 20:00:00 5,0 3,3 18 10 28 15 WSW 985,4 50 0,0
09.12.2018 19:00:00 5,2 3,2 22 12 28 15 WSW 985,0 50 0,0
09.12.2018 18:00:00 5,1 3,3 21 11 28 15 SW 984,4 50 0,0
09.12.2018 17:00:00 4,9 3,6 17 9 32 17 SW 983,9 30 0,0
09.12.2018 16:00:00 5,0 3,5 22 12 34 18 SW 983,4 8 0,0
09.12.2018 15:00:00 5,3 3,5 22 12 39 21 SW 982,7 28 0,0
09.12.2018 14:00:00 5,5 3,7 23 12 44 24 SW 982,0 50 0,0
09.12.2018 13:00:00 5,6 3,8 29 16 46 25 SW 981,3 50 0,0
09.12.2018 12:00:00 5,7 3,7 33 18 56 30 SW 980,7 50 0,0
09.12.2018 11:00:00 6,0 3,8 36 19 64 35 SW 980,0 50 0,0
09.12.2018 10:00:00 6,1 4,1 39 21 71 38 SW 979,1 40 0,1
09.12.2018 09:00:00 6,0 5,0 42 23 71 38 SW 977,9 7 0,2
09.12.2018 08:00:00 6,2 5,0 46 25 68 37 SSW 977,0 9 0,9
09.12.2018 07:00:00 6,4 4,9 49 26 64 34 SSW 976,5 13 0,0
09.12.2018 06:00:00 6,3 4,8 46 25 60 33 S 976,4 14 0,0
09.12.2018 05:00:00 6,2 4,8 44 24 61 33 SSW 976,6 10 0,2
09.12.2018 04:00:00 6,1 5,1 42 23 61 33 SSW 977,1 3,6 0,7
09.12.2018 03:00:00 6,3 5,1 39 21 52 28 SSW 977,5 19 0,0
09.12.2018 02:00:00 6,2 5,2 38 20 51 28 SSW 977,8 14 0,1
09.12.2018 01:00:00 6,1 5,4 34 18 49 27 SSW 978,4 10 0,6
09.12.2018 00:00:00 6,0 5,4 37 20 50 27 SSW 978,9 9 0,4
08.12.2018 23:00:00 6,0 5,3 35 19 50 27 SSW 979,6 9 0,3
08.12.2018 22:00:00 5,8 4,9 32 17 52 28 SSW 980,2 20 0,3
08.12.2018 21:00:00 5,4 4,7 30 16 52 28 S 980,9 11 0,7
08.12.2018 20:00:00 5,3 4,0 38 21 53 29 SSW 981,6 20 0,0
08.12.2018 19:00:00 5,2 3,4 37 20 53 29 SSW 982,5 49 0,0
08.12.2018 18:00:00 5,6 3,6 38 20 53 28 SSW 983,5 34 0,0
08.12.2018 17:00:00 5,8 4,0 36 19 46 25 SSW 984,0 21 0,0
08.12.2018 16:00:00 5,8 4,0 34 19 46 25 SSW 984,5 20 0,0
08.12.2018 15:00:00 5,9 4,5 30 16 49 26 SW 984,6 20 0,0
08.12.2018 14:00:00 5,7 4,7 30 16 49 26 SW 984,7 29 0,0
08.12.2018 13:00:00 5,8 4,4 37 20 46 25 WSW 984,7 27 0,0
08.12.2018 12:00:00 5,8 4,6 32 17 44 24 WSW 984,4 50 0,0
08.12.2018 11:00:00 5,7 4,2 30 16 44 24 WSW 984,0 50 0,0
08.12.2018 10:00:00 5,9 5,5 29 15 44 24 W 983,7 50 0,1
08.12.2018 09:00:00 6,4 6,3 26 14 35 19 SSW 983,6 2,2 0,5
08.12.2018 08:00:00 6,2 6,1 22 12 33 18 S 983,6 3,3 1,9
08.12.2018 07:00:00 6,1 6,0 25 14 33 18 S 984,0 5 1,5
08.12.2018 06:00:00 6,1 6,0 21 11 40 21 S 984,4 0,9 0,1
08.12.2018 05:00:00 6,1 6,0 29 16 41 22 S 984,9 2,2 0,2
08.12.2018 04:00:00 5,9 5,8 32 18 41 22 SSE 986,0 2,1 0,8
08.12.2018 03:00:00 5,7 5,6 33 18 41 22 SE 987,0 2,7 0,7
08.12.2018 02:00:00 5,7 5,6 31 17 35 19 SE 988,0 1,9 0,3
08.12.2018 01:00:00 5,6 5,5 25 14 29 16 SE 989,5 2,2 0,2
08.12.2018 00:00:00 5,5 5,4 20 11 23 12 SE 990,6 0,4 0,6
07.12.2018 23:00:00 5,2 4,9 16 9 19 10 SE 991,5 3,2 0,0
07.12.2018 22:00:00 4,8 4,5 13 7 16 9 SE 992,3 15 0,0
07.12.2018 21:00:00 4,3 3,9 7 4 14 7 SSE 993,2 14 0,0
07.12.2018 20:00:00 3,8 3,4 9 5 15 8 SSW 994,2 32 0,0
07.12.2018 19:00:00 3,4 3,0 8 4 15 8 SE 994,5 38 0,0
07.12.2018 18:00:00 3,3 2,9 4 2 16 9 NNW 995,1 27 0,0
07.12.2018 17:00:00 3,4 3,0 8 4 16 9 WNW 996,1 7 0,1
07.12.2018 16:00:00 3,6 2,9 9 5 12 6 W 996,7 50 0,0
07.12.2018 15:00:00 3,3 2,7 4 2 11 6 NW 996,8 50 0,0
07.12.2018 14:00:00 3,4 2,8 7 4 15 8 NNW 997,0 31 0,0
07.12.2018 13:00:00 3,8 3,1 8 5 15 8 NW 996,9 50 0,0
07.12.2018 12:00:00 4,2 3,2 7 4 18 10 WNW 997,3 50 0,0
07.12.2018 11:00:00 4,4 3,4 14 7 18 10 W 998,2 50 0,0
07.12.2018 10:00:00 4,6 3,9 11 6 20 11 W 998,2 38 0,0
07.12.2018 09:00:00 4,7 4,1 10 5 38 21 W 997,9 36 0,0
07.12.2018 08:00:00 5,0 4,6 17 9 41 22 W 998,7 15 0,0
07.12.2018 07:00:00 - - - - - - - - - -
07.12.2018 06:00:00 3,7 3,0 36 19 48 26 SSE 999,2 4,4 0,1
07.12.2018 05:00:00 3,1 1,9 37 20 49 26 S 1000,4 13 0,8
07.12.2018 04:00:00 3,2 2,0 34 19 49 27 S 1001,7 10 1,3
07.12.2018 03:00:00 3,9 2,6 36 19 51 28 S 1003,0 9 1,8
07.12.2018 02:00:00 4,0 2,4 41 22 55 30 S 1004,2 7 1,1
07.12.2018 01:00:00 4,4 3,1 40 21 49 26 S 1005,1 7 0,7
07.12.2018 00:00:00 4,7 3,5 30 16 46 25 S 1006,6 7 0,0
06.12.2018 23:00:00 5,0 2,7 35 19 46 25 S 1007,7 34 0,0
06.12.2018 22:00:00 5,1 3,0 29 15 37 20 S 1008,6 29 0,0
06.12.2018 21:00:00 5,0 2,9 27 15 37 20 S 1010,0 31 0,0
06.12.2018 20:00:00 5,0 2,4 21 11 35 19 SSW 1010,9 32 0,0
06.12.2018 19:00:00 5,0 2,9 21 12 29 16 SSW 1011,9 32 0,0
06.12.2018 18:00:00 4,5 2,8 15 8 24 13 SSW 1012,8 28 0,0
06.12.2018 17:00:00 3,4 3,0 13 7 27 15 SSW 1013,4 12 0,0
06.12.2018 16:00:00 2,9 2,0 18 10 27 15 SW 1013,8 19 0,0
06.12.2018 15:00:00 2,9 1,6 19 10 24 13 SW 1014,4 31 0,0
06.12.2018 14:00:00 3,3 1,0 16 8 22 12 SW 1014,9 46 0,0
06.12.2018 13:00:00 3,8 0,3 12 6 27 15 SW 1015,3 49 0,0
06.12.2018 12:00:00 3,8 0,8 19 10 32 17 WSW 1015,8 50 0,0
06.12.2018 11:00:00 3,9 1,3 24 13 33 18 WSW 1016,2 50 0,0
06.12.2018 10:00:00 3,9 1,6 25 14 34 18 WSW 1016,2 42 0,0
06.12.2018 09:00:00 3,9 1,9 25 14 35 19 WSW 1016,3 50 0,0
06.12.2018 08:00:00 3,8 2,2 25 14 41 22 W 1016,3 44 0,0
06.12.2018 07:00:00 3,6 2,1 26 14 41 22 W 1016,3 38 0,0
06.12.2018 06:00:00 3,5 2,0 32 18 42 23 WSW 1016,1 50 0,0
06.12.2018 05:00:00 3,2 1,7 29 16 42 23 WSW 1016,4 50 0,0
06.12.2018 04:00:00 3,1 1,3 29 16 40 22 WSW 1016,5 50 0,0
06.12.2018 03:00:00 3,4 1,4 28 15 46 25 WSW 1017,1 50 0,0
06.12.2018 02:00:00 3,4 1,3 32 18 46 25 W 1017,1 49 0,0
06.12.2018 01:00:00 3,2 0,8 28 15 43 23 W 1017,0 42 0,0
06.12.2018 00:00:00 3,0 0,4 31 17 47 25 W 1017,2 44 0,0
05.12.2018 23:00:00 2,5 0,1 34 19 47 25 W 1017,6 43 0,0
05.12.2018 22:00:00 2,3 -0,6 33 18 45 25 W 1017,6 47 0,0
05.12.2018 21:00:00 2,5 -0,6 31 17 46 25 W 1017,7 50 0,0
05.12.2018 20:00:00 2,5 -1,5 36 19 46 25 W 1017,6 50 0,0
05.12.2018 19:00:00 2,3 -1,9 32 17 48 26 W 1018,1 50 0,0
05.12.2018 18:00:00 2,1 -2,6 36 19 49 26 W 1018,2 50 0,0
05.12.2018 17:00:00 2,2 -3,3 34 19 49 26 W 1018,0 50 0,0

tt = Température de l'air
td = dewpoint
ff = Vitesse du vent
fx = gusts
dd = Direction du vent
ppp = reduced air pressure
vv = visibility
rr = Quantités de précipitations

stations d'obs. à proximité